Minot, ND

12:57 AM CDT on October 01, 2016 (GMT -0500)
Minot International

Weather History for KMOT - March, 2015

Change the Weather History Date:

Sunday, March 15, 2015

  Actual Average Record
Temperature  
Mean Temperature 52 °F 28 °F  
Max Temperature 63 °F 36 °F 64 °F (2012)
Min Temperature 41 °F 19 °F -27 °F (1906)
Degree Days  
Heating Degree Days 13 37  
Month to date heating degree days 509 607  
Since 1 July heating degree days 7197 7183  
Cooling Degree Days 0 0  
Month to date cooling degree days 0 0  
Year to date cooling degree days 0 0  
Growing Degree Days 4 (Base 50)    
Moisture  
Dew Point 30 °F    
Average Humidity 50    
Maximum Humidity 79    
Minimum Humidity 21    
Precipitation  
Precipitation T in 0.03 in 0.20 in (1987)
Month to date precipitation T 0.33  
Year to date precipitation 0.47 1.24  
Sea Level Pressure  
Sea Level Pressure 29.79 in    
Wind  
Wind Speed 13 mph (West)    
Max Wind Speed 25 mph    
Max Gust Speed 30 mph    
Visibility 10 miles    
Events Rain    
T = Trace of Precipitation, MM = Missing Value Source: NWS Daily Summary

Daily Weather History Graph

Daily Weather History Graph

Search for Another Location

Airport or City:

Trip Planner

Search our weather history database for the weather conditions in past years. The results will help you decide how hot, cold, wet, or windy it might be!

Date:

Astronomy

Mar. 15, 2015 Rise Set
Actual Time 7:58 AM CDT 7:50 PM CDT
Civil Twilight 7:27 AM CDT 8:21 PM CDT
Nautical Twilight 6:51 AM CDT 8:57 PM CDT
Astronomical Twilight 6:14 AM CDT 9:35 PM CDT
Moon 4:42 AM CDT (3/15) 2:21 PM CDT (3/15)
Length of Visible Light 12h 53m
Length of Day
11h 51m
Waning Crescent, 29% of the Moon is Illuminated
Mar 15
Waning Crescent
Mar 20
New
Mar 27
First Quarter
Apr 4
Full
Apr 11
Last Quarter

Hourly Weather History & Observations

Time (CDT) Temp. Windchill Dew Point Humidity Pressure Visibility Wind Dir Wind Speed Gust Speed Precip Events Conditions
12:54 AM 57.0 °F - 30.0 °F 36% 29.58 in 10.0 mi SSW 21.9 mph 27.6 mph N/A   Mostly Cloudy
1:54 AM 55.0 °F - 30.0 °F 38% 29.58 in 10.0 mi SSW 15.0 mph - N/A   Scattered Clouds
2:54 AM 57.0 °F - 30.0 °F 36% 29.59 in 10.0 mi SW 16.1 mph - N/A   Partly Cloudy
3:54 AM 59.0 °F - 30.9 °F 35% 29.61 in 10.0 mi WSW 18.4 mph 25.3 mph N/A   Mostly Cloudy
4:54 AM 57.0 °F - 33.1 °F 40% 29.65 in 10.0 mi West 15.0 mph - N/A   Clear
5:54 AM 55.0 °F - 33.1 °F 43% 29.67 in 10.0 mi WSW 16.1 mph - N/A   Clear
6:54 AM 54.0 °F - 35.1 °F 49% 29.69 in 10.0 mi WSW 16.1 mph - N/A   Clear
7:54 AM 54.0 °F - 35.1 °F 49% 29.73 in 10.0 mi WSW 12.7 mph - N/A   Clear
8:54 AM 53.1 °F - 35.1 °F 50% 29.76 in 10.0 mi WSW 13.8 mph - N/A   Clear
9:54 AM 54.0 °F - 36.0 °F 51% 29.78 in 10.0 mi West 15.0 mph - N/A   Clear
10:54 AM 57.0 °F - 36.0 °F 45% 29.82 in 10.0 mi West 18.4 mph 27.6 mph N/A   Clear
11:54 AM 59.0 °F - 30.9 °F 35% 29.83 in 10.0 mi WNW 21.9 mph 28.8 mph N/A   Clear
12:54 PM 62.1 °F - 26.1 °F 25% 29.85 in 10.0 mi WNW 21.9 mph 26.5 mph N/A   Clear
1:54 PM 62.1 °F - 25.0 °F 24% 29.86 in 10.0 mi WNW 13.8 mph 25.3 mph N/A   Mostly Cloudy
2:54 PM 62.1 °F - 26.1 °F 25% 29.86 in 10.0 mi WNW 18.4 mph 21.9 mph N/A   Mostly Cloudy
3:54 PM 57.9 °F - 24.1 °F 27% 29.87 in 10.0 mi WNW 16.1 mph - N/A   Mostly Cloudy
4:54 PM 59.0 °F - 21.0 °F 23% 29.88 in 10.0 mi WNW 15.0 mph - N/A   Mostly Cloudy
5:54 PM 57.0 °F - 18.0 °F 22% 29.90 in 10.0 mi WNW 10.4 mph - N/A   Clear
6:54 PM 54.0 °F - 19.9 °F 26% 29.91 in 10.0 mi WNW 5.8 mph - N/A   Scattered Clouds
7:54 PM 50.0 °F - 27.0 °F 41% 29.92 in 10.0 mi NW 6.9 mph - N/A   Overcast
8:54 PM 48.0 °F - 30.0 °F 50% 29.90 in 10.0 mi NNW 4.6 mph - N/A   Overcast
9:54 PM 45.0 °F 42.6 °F 34.0 °F 65% 29.90 in 10.0 mi NNE 4.6 mph - 0.00 in Rain Light Rain
10:54 PM 45.0 °F - 32.0 °F 60% 29.90 in 10.0 mi Calm Calm - 0.00 in   Mostly Cloudy
11:54 PM 41.0 °F 37.1 °F 35.1 °F 79% 29.90 in 10.0 mi NNW 5.8 mph - N/A   Clear